******** Week 364 almanac for PRN-1 ******** ID: 1 Health: 0 Eccentricity: 0.001673698425 Time of Applicability(s): 405504 Orbital Inclination(rad): 0.9578595487 Rate of Right Ascen(r/s): -7.977475151e-09 SQRT(A) (m 1/2): 5153.569824 Right Ascen at Week(rad): 2.634112786 Argument of Perigee(rad): 0.1455281882 Mean Anom(rad): 1.540012224 Af0(s): 0.0002419294556 Af1(s/s): -7.275958e-12 week: 364 ******** Week 364 almanac for PRN-2 ******** ID: 2 Health: 0 Eccentricity: 0.01683092117 Time of Applicability(s): 405504 Orbital Inclination(rad): 0.9629468522 Rate of Right Ascen(r/s): -8.023191341e-09 SQRT(A) (m 1/2): 5153.528809 Right Ascen at Week(rad): 2.471730658 Argument of Perigee(rad): -0.7932437115 Mean Anom(rad): 3.051968254 Af0(s): 5.577189941e-05 Af1(s/s): 7.275958e-12 week: 364 ******** Week 364 almanac for PRN-3 ******** ID: 3 Health: 0 Eccentricity: 0.006618499756 Time of Applicability(s): 405504 Orbital Inclination(rad): 0.9939560342 Rate of Right Ascen(r/s): -7.394593729e-09 SQRT(A) (m 1/2): 5153.573242 Right Ascen at Week(rad): -2.661431576 Argument of Perigee(rad): 1.204793979 Mean Anom(rad): -0.5346087831 Af0(s): 0.0004092451538 Af1(s/s): -1.455192e-11 week: 364 ******** Week 364 almanac for PRN-4 ******** ID: 4 Health: 0 Eccentricity: 0.003722190857 Time of Applicability(s): 405504 Orbital Inclination(rad): 0.9705388587 Rate of Right Ascen(r/s): -8.034620388e-09 SQRT(A) (m 1/2): 5153.65918 Right Ascen at Week(rad): -1.59149196 Argument of Perigee(rad): -2.871557358 Mean Anom(rad): 2.421687531 Af0(s): 4.069841309e-05 Af1(s/s): 0 week: 364 ******** Week 364 almanac for PRN-5 ******** ID: 5 Health: 0 Eccentricity: 0.005454063415 Time of Applicability(s): 405504 Orbital Inclination(rad): 0.9804857654 Rate of Right Ascen(r/s): -7.508884204e-09 SQRT(A) (m 1/2): 5153.681152 Right Ascen at Week(rad): -2.721550815 Argument of Perigee(rad): 1.418243136 Mean Anom(rad): 3.092505644 Af0(s): -0.0001823891846 Af1(s/s): 0 week: 364 ******** Week 364 almanac for PRN-6 ******** ID: 6 Health: 0 Eccentricity: 0.003808021545 Time of Applicability(s): 405504 Orbital Inclination(rad): 0.9866756175 Rate of Right Ascen(r/s): -7.737465153e-09 SQRT(A) (m 1/2): 5153.609863 Right Ascen at Week(rad): 2.585510388 Argument of Perigee(rad): -0.53846658 Mean Anom(rad): 0.7538980031 Af0(s): -0.0004838589111 Af1(s/s): 0 week: 364 ******** Week 364 almanac for PRN-7 ******** ID: 7 Health: 0 Eccentricity: 0.02067661285 Time of Applicability(s): 405504 Orbital Inclination(rad): 0.9510764774 Rate of Right Ascen(r/s): -7.943188008e-09 SQRT(A) (m 1/2): 5153.560059 Right Ascen at Week(rad): -0.5826801308 Argument of Perigee(rad): -1.981783711 Mean Anom(rad): -0.08473408772 Af0(s): -0.0001326466797 Af1(s/s): -3.637979e-12 week: 364 ******** Week 364 almanac for PRN-8 ******** ID: 8 Health: 0 Eccentricity: 0.01160001755 Time of Applicability(s): 405504 Orbital Inclination(rad): 0.9428612913 Rate of Right Ascen(r/s): -8.468924193e-09 SQRT(A) (m 1/2): 5153.640137 Right Ascen at Week(rad): 1.463540136 Argument of Perigee(rad): 0.5335317009 Mean Anom(rad): 2.729027473 Af0(s): 0.0003700540894 Af1(s/s): -7.275958e-12 week: 364 ******** Week 364 almanac for PRN-9 ******** ID: 9 Health: 0 Eccentricity: 0.003345489502 Time of Applicability(s): 405504 Orbital Inclination(rad): 0.9647564702 Rate of Right Ascen(r/s): -8.080336578e-09 SQRT(A) (m 1/2): 5153.69873 Right Ascen at Week(rad): -1.655973831 Argument of Perigee(rad): 2.056907574 Mean Anom(rad): -2.95792954 Af0(s): 0.0006029394531 Af1(s/s): -3.637979e-12 week: 364 ******** Week 364 almanac for PRN-10 ******** ID: 10 Health: 0 Eccentricity: 0.01093196869 Time of Applicability(s): 405504 Orbital Inclination(rad): 0.9934886494 Rate of Right Ascen(r/s): -7.360306586e-09 SQRT(A) (m 1/2): 5153.612305 Right Ascen at Week(rad): -2.663941148 Argument of Perigee(rad): -2.256100372 Mean Anom(rad): -1.528917079 Af0(s): -0.0004665244019 Af1(s/s): 0 week: 364 ******** Week 364 almanac for PRN-11 ******** ID: 11 Health: 0 Eccentricity: 0.002205848694 Time of Applicability(s): 405504 Orbital Inclination(rad): 0.9635640398 Rate of Right Ascen(r/s): -7.966046103e-09 SQRT(A) (m 1/2): 5153.540039 Right Ascen at Week(rad): 2.603618177 Argument of Perigee(rad): -2.321296803 Mean Anom(rad): 1.90031495 Af0(s): -0.0003052380981 Af1(s/s): 1.455192e-11 week: 364 ******** Week 364 almanac for PRN-12 ******** ID: 12 Health: 0 Eccentricity: 0.008942604065 Time of Applicability(s): 405504 Orbital Inclination(rad): 0.9594234901 Rate of Right Ascen(r/s): -7.783181343e-09 SQRT(A) (m 1/2): 5153.714844 Right Ascen at Week(rad): 0.53486944 Argument of Perigee(rad): 1.569000941 Mean Anom(rad): -0.7750404228 Af0(s): -0.0004808442139 Af1(s/s): 0 week: 364 ******** Week 364 almanac for PRN-13 ******** ID: 13 Health: 0 Eccentricity: 0.01008796692 Time of Applicability(s): 405504 Orbital Inclination(rad): 0.9760875548 Rate of Right Ascen(r/s): -8.011762293e-09 SQRT(A) (m 1/2): 5153.611328 Right Ascen at Week(rad): -1.480393701 Argument of Perigee(rad): 0.9945700763 Mean Anom(rad): 2.496064627 Af0(s): 0.0005381234619 Af1(s/s): 0 week: 364 ******** Week 364 almanac for PRN-14 ******** ID: 14 Health: 0 Eccentricity: 0.006883144379 Time of Applicability(s): 405504 Orbital Inclination(rad): 0.9427833938 Rate of Right Ascen(r/s): -7.897471818e-09 SQRT(A) (m 1/2): 5153.611816 Right Ascen at Week(rad): 0.4797588582 Argument of Perigee(rad): -2.734694139 Mean Anom(rad): -0.9144854933 Af0(s): 0.0005863586182 Af1(s/s): 0 week: 364 ******** Week 364 almanac for PRN-15 ******** ID: 15 Health: 0 Eccentricity: 0.01664304733 Time of Applicability(s): 405504 Orbital Inclination(rad): 0.9427594254 Rate of Right Ascen(r/s): -8.274630386e-09 SQRT(A) (m 1/2): 5153.644531 Right Ascen at Week(rad): -1.800820042 Argument of Perigee(rad): 1.50746644 Mean Anom(rad): 1.733693403 Af0(s): 0.0003157895386 Af1(s/s): 3.637979e-12 week: 364 ******** Week 364 almanac for PRN-16 ******** ID: 16 Health: 0 Eccentricity: 0.01501750946 Time of Applicability(s): 405504 Orbital Inclination(rad): 0.9585306653 Rate of Right Ascen(r/s): -7.794610391e-09 SQRT(A) (m 1/2): 5153.620605 Right Ascen at Week(rad): 0.551787046 Argument of Perigee(rad): 0.9316719954 Mean Anom(rad): -2.51299946 Af0(s): 0.0001876649048 Af1(s/s): 7.275958e-12 week: 364 ******** Week 364 almanac for PRN-17 ******** ID: 17 Health: 0 Eccentricity: 0.01261806488 Time of Applicability(s): 405504 Orbital Inclination(rad): 0.9584887206 Rate of Right Ascen(r/s): -8.320346576e-09 SQRT(A) (m 1/2): 5153.552734 Right Ascen at Week(rad): 1.568776611 Argument of Perigee(rad): -1.116123074 Mean Anom(rad): 2.682070658 Af0(s): -8.139682617e-05 Af1(s/s): -1.091394e-11 week: 364 ******** Week 364 almanac for PRN-18 ******** ID: 18 Health: 0 Eccentricity: 0.005815029144 Time of Applicability(s): 405504 Orbital Inclination(rad): 0.9716294232 Rate of Right Ascen(r/s): -7.874613723e-09 SQRT(A) (m 1/2): 5153.585938 Right Ascen at Week(rad): 2.580038091 Argument of Perigee(rad): -2.870755164 Mean Anom(rad): 0.6988664423 Af0(s): -0.0003052380981 Af1(s/s): 1.091394e-11 week: 364 ******** Week 364 almanac for PRN-19 ******** ID: 19 Health: 0 Eccentricity: 0.01125955582 Time of Applicability(s): 405504 Orbital Inclination(rad): 0.9576438327 Rate of Right Ascen(r/s): -8.343204671e-09 SQRT(A) (m 1/2): 5153.669922 Right Ascen at Week(rad): 1.612668086 Argument of Perigee(rad): 2.945402279 Mean Anom(rad): -1.821086865 Af0(s): 0.000550182251 Af1(s/s): 0 week: 364 ******** Week 364 almanac for PRN-20 ******** ID: 20 Health: 0 Eccentricity: 0.002229690552 Time of Applicability(s): 405504 Orbital Inclination(rad): 0.9601545278 Rate of Right Ascen(r/s): -8.160339911e-09 SQRT(A) (m 1/2): 5153.695801 Right Ascen at Week(rad): -1.650514268 Argument of Perigee(rad): -1.945689847 Mean Anom(rad): -0.8371752584 Af0(s): 6.858436279e-05 Af1(s/s): 2.182787e-11 week: 364 ******** Week 364 almanac for PRN-21 ******** ID: 21 Health: 0 Eccentricity: 0.0008177757263 Time of Applicability(s): 405504 Orbital Inclination(rad): 0.9633543159 Rate of Right Ascen(r/s): -7.691748963e-09 SQRT(A) (m 1/2): 5153.736328 Right Ascen at Week(rad): -2.656119568 Argument of Perigee(rad): -0.2398792419 Mean Anom(rad): -1.148844502 Af0(s): 0.000326340979 Af1(s/s): 3.637979e-12 week: 364 ******** Week 364 almanac for PRN-22 ******** ID: 22 Health: 0 Eccentricity: 0.0120382309 Time of Applicability(s): 405504 Orbital Inclination(rad): 0.957979391 Rate of Right Ascen(r/s): -7.783181343e-09 SQRT(A) (m 1/2): 5153.580566 Right Ascen at Week(rad): 0.555142629 Argument of Perigee(rad): -0.9926335004 Mean Anom(rad): -2.954075862 Af0(s): -1.959553223e-05 Af1(s/s): 7.275958e-12 week: 364 ******** Week 364 almanac for PRN-23 ******** ID: 23 Health: 0 Eccentricity: 0.006084918976 Time of Applicability(s): 405504 Orbital Inclination(rad): 0.9884732513 Rate of Right Ascen(r/s): -7.417451824e-09 SQRT(A) (m 1/2): 5153.669434 Right Ascen at Week(rad): -2.696158115 Argument of Perigee(rad): -2.739031679 Mean Anom(rad): -0.45736933 Af0(s): 0.0004989323975 Af1(s/s): 3.637979e-12 week: 364 ******** Week 364 almanac for PRN-24 ******** ID: 24 Health: 0 Eccentricity: 0.01797389984 Time of Applicability(s): 405504 Orbital Inclination(rad): 0.9350176161 Rate of Right Ascen(r/s): -8.194627053e-09 SQRT(A) (m 1/2): 5153.585938 Right Ascen at Week(rad): -0.6917272148 Argument of Perigee(rad): 1.139251504 Mean Anom(rad): 0.8979461394 Af0(s): -4.295943603e-05 Af1(s/s): 1.818989e-11 week: 364 ******** Week 364 almanac for PRN-25 ******** ID: 25 Health: 0 Eccentricity: 0.01289892197 Time of Applicability(s): 405504 Orbital Inclination(rad): 0.9478347446 Rate of Right Ascen(r/s): -7.863184676e-09 SQRT(A) (m 1/2): 5153.668457 Right Ascen at Week(rad): 0.4407337278 Argument of Perigee(rad): 1.159133708 Mean Anom(rad): -0.891878002 Af0(s): 0.0003421681396 Af1(s/s): -3.637979e-12 week: 364 ******** Week 364 almanac for PRN-26 ******** ID: 26 Health: 0 Eccentricity: 0.01102304459 Time of Applicability(s): 405504 Orbital Inclination(rad): 0.9286240321 Rate of Right Ascen(r/s): -8.000333246e-09 SQRT(A) (m 1/2): 5153.686523 Right Ascen at Week(rad): 0.3656559293 Argument of Perigee(rad): 0.7113652398 Mean Anom(rad): -1.713490995 Af0(s): -0.0002758447998 Af1(s/s): -3.637979e-12 week: 364 ******** Week 364 almanac for PRN-27 ******** ID: 27 Health: 0 Eccentricity: 0.01438331604 Time of Applicability(s): 405504 Orbital Inclination(rad): 0.9519513259 Rate of Right Ascen(r/s): -8.388920861e-09 SQRT(A) (m 1/2): 5153.610352 Right Ascen at Week(rad): 1.495855599 Argument of Perigee(rad): 0.8900230687 Mean Anom(rad): 2.83593013 Af0(s): -7.159906006e-05 Af1(s/s): -1.455192e-11 week: 364 ******** Week 364 almanac for PRN-28 ******** ID: 28 Health: 0 Eccentricity: 0.0003819465637 Time of Applicability(s): 405504 Orbital Inclination(rad): 0.9619881142 Rate of Right Ascen(r/s): -7.897471818e-09 SQRT(A) (m 1/2): 5153.508789 Right Ascen at Week(rad): -0.6080776994 Argument of Perigee(rad): -0.3049517106 Mean Anom(rad): 0.5337571541 Af0(s): -0.0004461751953 Af1(s/s): 7.275958e-12 week: 364 ******** Week 364 almanac for PRN-29 ******** ID: 29 Health: 0 Eccentricity: 0.0034532547 Time of Applicability(s): 405504 Orbital Inclination(rad): 0.9611312421 Rate of Right Ascen(r/s): -8.308917528e-09 SQRT(A) (m 1/2): 5153.686035 Right Ascen at Week(rad): 1.585598718 Argument of Perigee(rad): 2.750412199 Mean Anom(rad): 2.680858754 Af0(s): -0.0002750911255 Af1(s/s): 7.275958e-12 week: 364 ******** Week 364 almanac for PRN-30 ******** ID: 30 Health: 0 Eccentricity: 0.00816488266 Time of Applicability(s): 405504 Orbital Inclination(rad): 0.936347865 Rate of Right Ascen(r/s): -8.126052768e-09 SQRT(A) (m 1/2): 5153.685059 Right Ascen at Week(rad): -0.592124449 Argument of Perigee(rad): -2.297225738 Mean Anom(rad): -0.2933262634 Af0(s): 0.0001371687256 Af1(s/s): 1.455192e-11 week: 364 ******** Week 364 almanac for PRN-31 ******** ID: 31 Health: 0 Eccentricity: 0.01083230972 Time of Applicability(s): 405504 Orbital Inclination(rad): 0.9548515083 Rate of Right Ascen(r/s): -7.943188008e-09 SQRT(A) (m 1/2): 5153.530273 Right Ascen at Week(rad): -0.5583281858 Argument of Perigee(rad): 0.9409732519 Mean Anom(rad): -1.168364557 Af0(s): -0.0001251099365 Af1(s/s): 3.637979e-12 week: 364 ******** Week 364 almanac for PRN-32 ******** ID: 32 Health: 0 Eccentricity: 0.009383678436 Time of Applicability(s): 405504 Orbital Inclination(rad): 0.9677764949 Rate of Right Ascen(r/s): -8.068907531e-09 SQRT(A) (m 1/2): 5153.683105 Right Ascen at Week(rad): -1.638861856 Argument of Perigee(rad): -1.985691317 Mean Anom(rad): -2.891302118 Af0(s): -1.431981201e-05 Af1(s/s): 1.818989e-11 week: 364